SCP
0 0 0 0 0 0 0 0 0 1 1 1 0 0 0 0 0 0 0 0 0 0 0 0 0 0 0 0 0 0 0 0 0 0 0 0 0 0 0 0 0 0 0 0
0 0 0 0 0 0 0 0 0 1 1 1 0 0 0 0 0 0 0 0 0 0 0 0 0 0 0 0 0 0 0 0 0 0 0 0 0 0 0 0 0 0 0 0
0 0 0 0 0 0 0 0 0 1 1 1 0 0 0 0 0 0 0 0 0 0 0 0 0 0 0 0 0 0 0 0 0 0 0 0 0 0 0 0 0 0 0 0
0 0 0 0 0 0 0 0 0 1 1 0 0 0 0 0 0 0 0 0 0 0 0 0 0 0 0 0 0 0 0 0 0 0 0 0 0 0 0 0 0 0 0 0
0 0 0 0 0 0 0 0 0 0 0 0 0 0 0 0 0 0 0 0 0 0 0 0 0 0 0 0 0 0 0 0 0 0 0 0 0 0 0 0 0 0 0 0
0 0 0 0 0 0 0 0 0 0 0 0 0 0 0 0 0 0 0 0 0 0 0 0 0 0 0 0 0 0 0 0 0 0 0 0 0 0 0 0 0 0 0 0
0 0 0 0 0 0 0 0 0 0 0 0 0 0 0 0 0 0 0 0 0 0 0 0 0 0 0 0 0 0 0 0 0 0 0 0 0 0 0 0 0 0 0 0
0 0 0 0 0 0 0 0 0 0 0 0 0 0 0 0 0 0 0 0 0 0 0 0 0 0 0 -0 -0 0 0 0 0 0 0 0 0 0 0 0 0 0 0 0
0 0 0 0 0 0 0 0 0 0 0 0 0 0 0 0 0 0 0 0 0 0 0 0 0 0 0 -0 -0 0 0 0 0 0 0 0 0 0 0 0 0 0 0 0
0 0 0 0 0 0 0 0 0 0 0 0 0 0 0 0 0 0 0 0 0 0 0 0 0 -0 -0 0 0 0 0 0 0 0 0 0 0 0 0 0 0 0 0 0
0 0 0 0 0 0 0 0 0 0 0 0 0 0 0 0 0 0 0 0 0 0 0 0 0 -0 0 0 0 0 0 0 0 0 0 0 0 0 0 0 0 0 0 0
0 0 0 0 0 0 0 0 0 0 0 0 0 0 0 0 0 0 0 0 0 0 0 0 0 -0 0 0 0 0 0 0 0 0 0 0 0 0 0 0 0 0 0 0
0 0 0 0 0 0 0 0 0 0 0 0 0 0 0 0 0 0 0 0 0 0 0 0 -0 0 0 0 0 0 0 0 0 0 0 0 0 0 0 0 0 0 0 0
0 0 0 0 0 0 0 0 0 0 0 0 0 0 0 0 0 0 0 0 0 0 0 0 0 0 0 0 0 0 0 0 0 0 0 0 0 0 0 0 0 0 0 0
0 0 0 0 0 0 0 0 0 0 0 0 0 0 0 0 0 0 0 0 0 0 0 0 0 0 0 0 0 0 0 0 0 0 0 0 0 0 0 0 0 0 0 0
0 0 0 0 0 0 0 0 0 0 0 0 0 0 0 0 0 0 0 0 0 0 0 0 0 0 0 0 0 0 0 0 0 0 0 0 0 0 0 0 0 0 0 0
0 0 0 0 0 0 0 0 0 0 0 0 0 0 0 0 0 0 -0 0 0 0 0 0 0 0 0 0 0 0 0 0 0 0 0 0 0 0 0 0 0 0 0 0
0 0 0 0 0 0 0 0 0 0 0 0 0 0 0 0 0 0 0 0 0 0 0 0 0 0 0 0 0 0 0 0 0 0 0 0 0 0 0 0 0 0 0 0
0 0 0 0 0 0 0 0 0 0 0 0 0 0 0 0 0 0 0 0 0 0 0 0 0 0 0 0 0 0 0 0 0 0 0 0 0 0 0 0 0 0 0 0
0 0 0 0 0 0 0 0 0 0 0 0 0 0 0 0 0 0 0 0 0 0 0 0 0 0 0 0 0 0 0 0 0 0 0 0 0 0 0 0 0 0 0 0
0 0 0 0 0 0 0 0 0 0 0 0 0 0 0 0 0 0 0 0 0 0 0 0 0 0 0 0 0 0 0 0 0 0 0 0 0 0 0 0 0 0 0 0
0 0 0 0 0 0 0 0 0 0 0 0 0 0 0 0 0 0 0 0 0 0 0 0 0 0 0 0 0 0 0 0 0 0 0 0 0 0 0 0 0 0 0 0
0 0 0 0 0 0 0 0 0 0 0 0 0 0 0 0 0 0 0 0 0 0 0 0 0 0 0 0 0 0 0 0 0 0 0 0 0 0 0 0 0 0 0 0
0 0 0 0 0 0 0 0 0 0 0 0 0 0 0 0 0 0 0 0 0 0 0 0 0 0 0 0 0 0 0 0 0 0 0 0 0 0 0 0 0 0 0 0
0 0 0 0 0 0 0 0 0 0 0 0 0 0 0 0 0 0 0 0 0 0 0 0 0 0 0 0 0 0 0 0 0 0 0 0 0 0 0 0 0 0 0 0
0 0 0 0 0 0 0 0 0 0 0 0 0 0 0 0 0 0 0 0 0 0 0 0 0 0 0 0 0 0 0 0 0 0 0 0 0 0 0 0 0 0 0 0
0 0 0 0 0 0 0 0 0 0 0 0 0 0 0 0 0 0 0 0 0 0 0 0 0 0 0 0 0 0 0 0 0 0 0 0 0 0 0 0 0 0 0 0
Wind_Speed
4 5 2 2 2 3 2 3 5 4 6 4 8 11 11 12 13 12 10 10 13 10 5 7 7 5 5 4 3 3 3 4 4 5 4 4 4 5 5 3 4 6 6 7
6 5 6 5 3 4 1 2 4 6 5 7 12 14 13 11 12 11 9 5 9 9 7 7 5 4 4 3 3 3 4 4 4 4 4 4 6 6 5 4 5 6 7 7
5 6 6 6 5 3 4 6 9 8 13 20 16 17 17 16 16 13 10 6 7 8 8 6 4 3 1 2 4 3 2 3 3 4 5 7 7 7 6 5 5 7 8 8
4 2 4 4 3 3 7 2 4 13 20 22 20 14 12 16 19 16 13 8 6 6 7 5 3 2 1 3 5 4 3 5 6 6 7 9 7 7 7 5 6 6 6 7
3 4 6 5 3 1 5 3 2 12 15 17 19 19 9 9 14 17 14 9 7 7 6 5 3 1 2 5 5 5 5 7 7 7 9 9 9 8 6 5 3 4 5 5
2 3 6 5 4 4 3 1 3 14 18 20 19 13 9 11 14 12 12 9 9 7 5 4 2 2 3 5 5 5 6 7 7 7 7 8 8 6 4 3 3 4 6 6
3 5 7 3 4 3 4 6 11 14 8 4 4 12 16 14 12 10 9 10 9 6 5 3 4 3 3 3 3 5 6 6 7 7 6 5 6 5 7 6 6 7 5 5
2 4 7 2 1 4 5 7 12 16 18 11 15 16 15 14 11 8 9 9 7 5 4 5 4 3 2 2 4 5 5 6 8 7 8 8 10 9 8 7 6 5 4 5
5 6 5 6 3 2 9 16 16 18 22 23 17 15 15 13 10 8 8 6 5 5 4 4 3 2 1 3 4 5 6 7 6 9 9 7 7 6 5 5 4 4 4 5
5 5 6 8 2 7 9 12 14 16 17 19 18 15 13 11 8 6 5 5 4 4 3 0 1 3 2 2 4 6 6 6 6 9 7 5 4 4 4 4 4 5 5 5
7 5 7 6 4 7 12 16 12 15 16 17 17 15 13 9 7 5 4 3 4 4 3 1 1 2 2 2 5 6 5 6 7 6 5 3 3 3 2 1 2 4 6 5
9 7 8 4 3 11 14 16 15 17 16 13 14 12 11 7 6 4 4 3 3 2 2 3 1 2 3 3 6 6 6 7 5 4 2 3 3 3 5 6 8 8 9 7
10 7 8 8 9 18 19 17 18 16 14 12 9 9 8 6 4 4 3 3 2 2 3 2 2 5 5 5 7 7 7 6 5 5 4 3 3 4 5 8 8 8 12 12
4 6 14 17 18 20 21 19 19 16 13 11 7 7 6 5 5 4 3 1 3 4 3 3 6 6 5 6 7 8 8 7 6 4 3 4 4 4 4 5 6 6 9 11
6 12 19 19 18 17 17 17 17 14 10 7 6 7 7 6 4 4 3 3 5 6 6 7 7 6 4 6 7 7 7 6 5 4 4 5 5 6 6 6 6 6 8 10
14 16 18 18 15 14 15 15 14 10 8 7 7 6 6 5 3 3 2 4 6 6 6 7 6 4 3 6 6 6 8 9 6 4 4 5 5 6 6 6 6 6 7 8
13 14 15 14 12 12 12 12 11 10 8 7 7 6 5 4 3 3 4 5 7 6 5 5 5 4 5 6 6 7 6 6 7 5 4 4 4 6 6 7 7 7 6 8
10 8 10 13 13 11 10 8 8 9 7 7 7 6 5 4 2 2 5 6 7 6 4 4 6 6 6 6 6 6 6 5 5 4 3 4 4 4 5 6 7 8 7 9
9 6 9 11 11 11 9 9 7 7 7 7 7 5 4 2 1 4 7 7 6 4 2 5 8 8 7 8 7 6 6 6 5 4 4 4 4 3 4 5 5 7 8 8
8 9 11 8 9 11 10 9 8 7 6 6 6 5 4 3 5 8 10 6 3 1 2 7 8 6 7 8 8 6 6 6 6 4 4 4 4 4 5 6 7 7 7 8
7 6 8 8 8 9 10 9 8 7 6 6 6 3 3 4 6 7 8 5 2 4 6 8 6 5 6 7 7 6 6 6 6 5 4 3 4 4 5 6 6 6 6 7
6 5 5 7 9 8 7 8 8 7 6 5 4 3 4 5 5 4 5 4 4 5 5 5 5 7 8 8 6 6 6 6 6 5 4 3 3 4 4 5 6 7 7 8
6 6 6 6 8 7 6 7 7 7 6 5 4 4 5 3 3 6 5 2 4 6 5 5 9 13 12 7 6 6 7 7 6 5 5 5 4 4 4 5 6 6 6 6
8 8 7 7 8 8 6 5 7 6 4 3 3 5 4 4 4 2 5 6 8 7 6 8 13 14 10 6 6 6 6 6 6 5 5 5 5 5 5 5 5 5 5 6
8 7 6 7 6 5 4 4 7 5 4 2 4 3 3 3 5 5 4 5 8 8 7 10 13 11 7 6 6 6 6 6 6 6 5 5 5 5 5 5 5 5 5 5
7 6 5 6 5 4 3 4 4 4 4 2 2 1 2 3 4 4 4 5 6 7 6 5 7 7 6 6 7 6 6 6 6 6 5 5 5 5 5 5 5 5 5 5
7 7 6 4 3 3 3 4 4 3 2 2 1 2 4 4 5 5 5 5 5 6 6 6 6 6 6 6 6 6 5 5 6 6 5 5 5 5 5 5 5 5 5 6
Wind_Direction
286 281 275 202 261 308 55 124 118 161 148 121 117 117 112 115 116 119 130 139 125 128 127 91 82 77 69 56 33 16 356 337 315 295 303 311 297 277 280 316 319 306 301 292
333 348 339 294 221 191 173 171 152 130 89 115 119 122 119 122 114 112 118 122 114 119 110 98 94 79 52 10 354 345 323 311 314 314 317 297 273 268 287 309 298 299 294 288
310 340 337 297 299 199 182 184 161 161 158 141 143 145 147 141 125 128 128 132 123 119 118 114 117 113 110 333 321 299 270 278 297 304 306 281 268 277 278 272 266 274 284 299
262 321 236 241 324 89 94 50 148 141 152 153 145 129 121 128 133 141 133 133 117 116 116 136 147 138 354 300 268 230 239 265 271 269 264 264 271 276 265 252 252 273 306 336
225 207 257 280 331 333 101 38 112 131 128 124 116 99 96 131 130 128 131 129 128 138 142 153 142 148 269 267 246 251 268 274 272 262 259 265 268 269 270 260 289 341 10 24
226 229 243 234 291 319 102 52 123 135 141 140 135 127 139 128 112 110 112 117 127 136 126 117 196 237 263 257 246 264 281 287 289 281 271 270 277 296 286 46 52 42 35 13
206 242 256 226 266 306 214 180 125 112 99 133 109 124 133 123 116 119 115 116 120 122 133 185 233 235 251 263 268 279 305 319 324 332 340 4 21 20 51 58 51 38 13 339
239 230 258 249 234 200 170 102 107 103 96 102 111 119 125 125 127 125 112 116 130 143 184 223 231 214 237 274 288 317 337 349 352 18 52 63 67 54 51 47 41 15 350 338
243 243 273 292 296 138 141 129 135 140 143 140 136 134 130 126 122 112 119 150 165 174 202 232 233 198 241 292 321 356 9 12 27 61 60 60 64 56 48 42 32 4 348 336
269 281 311 298 141 135 124 118 130 134 133 129 129 127 115 108 113 128 144 139 145 149 154 127 121 165 209 340 25 36 25 31 59 76 73 55 50 56 56 41 19 354 344 335
259 235 294 332 168 143 120 115 115 112 120 120 120 124 124 128 136 140 132 116 122 109 90 28 291 284 336 37 53 46 46 58 69 85 83 73 55 37 37 5 49 17 359 338
236 190 160 192 136 125 116 110 112 108 103 107 117 121 122 128 134 139 132 110 90 86 51 12 8 23 37 77 78 77 65 65 80 93 77 49 38 359 340 339 345 30 14 8
231 144 145 149 112 104 99 95 91 91 96 95 98 111 115 120 125 121 116 110 83 30 39 80 54 44 63 90 85 88 86 86 77 69 53 32 29 25 358 345 2 36 16 3
102 120 120 110 108 103 98 92 88 86 86 92 96 98 106 107 111 124 153 128 32 35 75 73 53 44 87 95 88 87 89 85 78 70 54 40 26 13 9 1 359 3 4 359
96 133 120 112 105 101 101 98 93 94 96 90 95 110 118 126 124 124 138 88 58 66 65 61 58 40 81 97 90 91 102 94 87 72 55 43 26 27 22 14 7 0 359 358
96 97 104 105 107 107 104 103 106 116 122 121 122 127 132 133 110 75 48 87 98 83 74 67 59 51 107 103 92 95 102 103 95 73 53 38 32 37 24 14 10 8 8 0
123 125 122 119 119 118 118 122 129 136 138 137 136 136 129 117 91 62 65 99 103 94 79 70 49 45 102 115 104 110 112 105 95 77 59 47 34 37 31 21 17 12 10 1
81 97 121 134 132 127 122 115 117 123 140 141 128 128 123 116 129 117 114 105 87 68 48 52 53 63 94 107 101 107 114 112 103 91 69 56 47 40 38 27 22 17 9 2
93 87 95 115 128 126 122 116 114 117 124 125 121 126 121 96 168 135 118 106 98 83 17 51 67 81 92 99 99 98 107 111 110 96 71 54 42 30 30 23 20 24 18 11
98 82 83 95 120 125 122 120 124 116 127 127 115 97 67 70 124 130 125 123 140 146 78 86 85 87 96 94 91 93 96 104 111 106 84 58 38 19 19 31 30 28 26 21
118 111 108 117 118 119 123 129 125 126 141 133 120 102 76 89 109 121 119 110 95 91 93 89 89 97 105 103 97 94 92 90 92 100 98 82 60 43 25 15 15 15 23 24
118 123 131 133 125 122 124 128 127 130 129 128 120 89 64 66 91 99 87 124 149 118 94 84 92 110 110 102 97 94 92 90 85 83 83 75 59 46 32 23 21 19 18 19
99 94 102 128 136 131 122 125 129 126 125 131 132 84 57 57 123 135 129 140 123 110 95 89 101 103 99 95 92 88 87 89 90 86 80 71 63 56 48 41 36 30 22 18
107 98 92 93 100 105 110 127 124 122 122 117 111 94 96 96 71 64 122 132 124 106 96 101 100 98 97 96 94 89 88 88 86 84 81 73 64 59 51 44 38 27 20 21
116 109 106 102 99 104 121 120 105 106 105 74 67 74 106 127 138 156 135 126 116 102 101 107 102 95 90 92 93 92 90 90 90 85 78 75 70 65 57 48 42 34 25 22
123 119 124 132 137 138 130 112 110 111 104 63 43 53 118 126 120 125 123 116 108 106 105 104 103 101 100 97 95 95 95 92 89 87 86 80 75 69 62 54 44 38 29 23
122 123 119 116 129 137 128 125 117 106 101 118 137 136 133 136 139 135 125 106 98 106 110 112 111 107 105 102 101 100 99 99 99 97 92 88 84 78 71 62 52 41 32 30